| time (UTC) | temp F | wind direction | speed MPH | gust MPH | rain 1hr in | rain 24hr in | rain mn in | humidity % | barometer mb |
| 20260507001312 | 58 | 122 | 0.0 | 1.0 | 0.00 | 0.11 | 0.11 | 94 | 1010.6 |
| 20260507000808 | 59 | 139 | 1.0 | 1.0 | 0.00 | 0.11 | 0.11 | 94 | 1010.7 |
| 20260507000306 | 59 | 124 | 0.0 | 1.0 | 0.00 | 0.11 | 0.11 | 94 | 1010.7 |
| 20260506235800 | 59 | 126 | 0.0 | 1.0 | 0.00 | 0.11 | 0.11 | 94 | 1010.4 |
| 20260506235256 | 59 | 125 | 0.0 | 1.0 | 0.00 | 0.11 | 0.11 | 94 | 1010.5 |
| 20260506234753 | 59 | 134 | 1.0 | 2.0 | 0.00 | 0.11 | 0.11 | 94 | 1010.3 |
| 20260506234250 | 59 | 132 | 1.0 | 1.0 | 0.00 | 0.11 | 0.11 | 94 | 1010.3 |
| 20260506233743 | 59 | 131 | 0.0 | 2.0 | 0.00 | 0.11 | 0.11 | 94 | 1010.2 |
| 20260506233239 | 59 | 138 | 1.0 | 1.0 | 0.00 | 0.11 | 0.11 | 94 | 1010.3 |
| 20260506232735 | 59 | 133 | 1.0 | 1.0 | 0.00 | 0.11 | 0.11 | 94 | 1010.4 |
| 20260506232230 | 59 | 134 | 1.0 | 1.0 | 0.00 | 0.11 | 0.11 | 94 | 1010.3 |
| 20260506231728 | 59 | 143 | 1.0 | 2.0 | 0.00 | 0.11 | 0.11 | 94 | 1010.6 |
| 20260506231226 | 59 | 116 | 0.0 | 1.0 | 0.00 | 0.11 | 0.11 | 94 | 1010.6 |
| 20260506230722 | 59 | 128 | 0.0 | 1.0 | 0.00 | 0.11 | 0.11 | 94 | 1010.8 |
| 20260506230219 | 59 | 122 | 0.0 | 0.0 | 0.00 | 0.11 | 0.11 | 94 | 1010.6 |
| 20260506225716 | 59 | 120 | 0.0 | 0.0 | 0.00 | 0.11 | 0.11 | 94 | 1010.3 |
| 20260506225213 | 59 | 123 | 0.0 | 1.0 | 0.00 | 0.11 | 0.11 | 94 | 1010.3 |
| 20260506224709 | 59 | 119 | 0.0 | 1.0 | 0.00 | 0.11 | 0.11 | 94 | 1010.3 |
| 20260506224207 | 59 | 124 | 0.0 | 0.0 | 0.00 | 0.11 | 0.11 | 94 | 1010.2 |
| 20260506223703 | 59 | 125 | 0.0 | 0.0 | 0.00 | 0.11 | 0.11 | 94 | 1010.3 |
| 20260506223158 | 59 | 120 | 0.0 | 1.0 | 0.00 | 0.11 | 0.11 | 94 | 1010.3 |
| 20260506222656 | 59 | 119 | 0.0 | 1.0 | 0.00 | 0.11 | 0.11 | 94 | 1010.2 |
| 20260506222151 | 59 | 120 | 0.0 | 1.0 | 0.00 | 0.11 | 0.11 | 94 | 1010.1 |
| 20260506221650 | 59 | 132 | 1.0 | 1.0 | 0.00 | 0.11 | 0.11 | 94 | 1010.2 |
| 20260506221147 | 59 | 125 | 0.0 | 1.0 | 0.00 | 0.11 | 0.11 | 94 | 1010.1 |
| 20260506220644 | 59 | 152 | 1.0 | 1.0 | 0.00 | 0.11 | 0.11 | 94 | 1010.0 |
| 20260506220139 | 59 | 126 | 0.0 | 1.0 | 0.00 | 0.11 | 0.11 | 94 | 1010.0 |
| 20260506215636 | 59 | 169 | 1.0 | 1.0 | 0.00 | 0.11 | 0.11 | 94 | 1010.1 |
| 20260506215131 | 59 | 227 | 2.0 | 2.0 | 0.00 | 0.11 | 0.11 | 94 | 1010.0 |
| 20260506214628 | 59 | 152 | 1.0 | 2.0 | 0.00 | 0.11 | 0.11 | 94 | 1009.8 |
| 20260506214126 | 59 | 116 | 0.0 | 1.0 | 0.00 | 0.11 | 0.11 | 94 | 1009.6 |
| 20260506213624 | 59 | 142 | 1.0 | 2.0 | 0.00 | 0.11 | 0.11 | 94 | 1009.8 |
| 20260506213121 | 60 | 154 | 1.0 | 2.0 | 0.00 | 0.11 | 0.11 | 93 | 1009.9 |
| 20260506212618 | 60 | 126 | 0.0 | 1.0 | 0.00 | 0.11 | 0.11 | 93 | 1009.8 |
| 20260506212113 | 60 | 135 | 1.0 | 2.0 | 0.00 | 0.11 | 0.11 | 93 | 1009.9 |
| 20260506211609 | 60 | 115 | 0.0 | 0.0 | 0.00 | 0.11 | 0.11 | 93 | 1009.7 |
| 20260506211106 | 60 | 126 | 0.0 | 0.0 | 0.00 | 0.11 | 0.11 | 93 | 1009.7 |
| 20260506210603 | 59 | 4 | 2.0 | 3.0 | 0.00 | 0.11 | 0.11 | 93 | 1009.6 |
| 20260506210059 | 59 | 128 | 0.0 | 0.0 | 0.00 | 0.11 | 0.11 | 93 | 1009.7 |
| 20260506205556 | 59 | 132 | 0.0 | 2.0 | 0.00 | 0.11 | 0.11 | 93 | 1009.5 |
| 20260506205051 | 59 | 127 | 0.0 | 1.0 | 0.00 | 0.11 | 0.11 | 93 | 1009.4 |
| 20260506204549 | 59 | 124 | 0.0 | 1.0 | 0.00 | 0.11 | 0.11 | 93 | 1009.7 |
| 20260506204046 | 60 | 124 | 0.0 | 1.0 | 0.00 | 0.11 | 0.11 | 93 | 1009.7 |
| 20260506203544 | 59 | 126 | 0.0 | 1.0 | 0.00 | 0.11 | 0.11 | 93 | 1009.5 |
| 20260506203040 | 59 | 119 | 0.0 | 1.0 | 0.07 | 0.11 | 0.11 | 93 | 1009.5 |
| 20260506202538 | 59 | 166 | 0.0 | 2.0 | 0.07 | 0.11 | 0.11 | 93 | 1009.9 |
| 20260506202034 | 59 | 76 | 1.0 | 1.0 | 0.12 | 0.10 | 0.10 | 93 | 1009.8 |
| 20260506201532 | 58 | 113 | 0.0 | 1.0 | 0.07 | 0.09 | 0.09 | 92 | 1010.1 |
| 20260506201028 | 58 | 133 | 1.0 | 1.0 | 0.00 | 0.08 | 0.08 | 92 | 1009.8 |
| 20260506200524 | 58 | 170 | 1.0 | 2.0 | 0.00 | 0.08 | 0.08 | 92 | 1009.8 |
| 20260506200021 | 59 | 153 | 1.0 | 2.0 | 0.00 | 0.08 | 0.08 | 92 | 1010.0 |
| 20260506195518 | 59 | 168 | 2.0 | 2.0 | 0.00 | 0.08 | 0.08 | 92 | 1010.0 |
| 20260506195014 | 59 | 127 | 0.0 | 2.0 | 0.05 | 0.08 | 0.08 | 92 | 1010.3 |
| 20260506194512 | 59 | 114 | 0.0 | 1.0 | 0.05 | 0.08 | 0.08 | 92 | 1010.3 |
| 20260506194009 | 59 | 167 | 2.0 | 3.0 | 0.07 | 0.07 | 0.07 | 92 | 1010.4 |
| 20260506193506 | 59 | 180 | 1.0 | 2.0 | 0.12 | 0.07 | 0.07 | 92 | 1010.3 |
| 20260506193003 | 59 | 150 | 1.0 | 1.0 | 0.05 | 0.06 | 0.06 | 92 | 1010.5 |
| 20260506192500 | 58 | 130 | 1.0 | 1.0 | 0.07 | 0.05 | 0.05 | 92 | 1010.6 |
| 20260506191955 | 59 | 213 | 2.0 | 2.0 | 0.07 | 0.05 | 0.05 | 91 | 1010.5 |
| 20260506191452 | 59 | 160 | 0.0 | 1.0 | 0.00 | 0.04 | 0.04 | 91 | 1010.7 |
| 20260506190949 | 59 | 139 | 1.0 | 1.0 | 0.00 | 0.04 | 0.04 | 91 | 1010.7 |
| 20260506190446 | 59 | 160 | 1.0 | 1.0 | 0.00 | 0.04 | 0.04 | 91 | 1010.6 |
| 20260506185942 | 59 | 119 | 0.0 | 0.0 | 0.00 | 0.04 | 0.04 | 91 | 1010.3 |
| 20260506185440 | 59 | 109 | 0.0 | 2.0 | 0.00 | 0.04 | 0.04 | 91 | 1010.5 |
| 20260506184937 | 59 | 115 | 0.0 | 2.0 | 0.00 | 0.04 | 0.04 | 91 | 1010.7 |
| 20260506184433 | 60 | 238 | 3.0 | 3.0 | 0.00 | 0.04 | 0.04 | 91 | 1010.7 |
| 20260506183931 | 59 | 117 | 0.0 | 1.0 | 0.00 | 0.04 | 0.04 | 91 | 1010.7 |
| 20260506183426 | 60 | 125 | 0.0 | 2.0 | 0.00 | 0.04 | 0.04 | 91 | 1010.8 |
| 20260506182924 | 60 | 149 | 1.0 | 1.0 | 0.00 | 0.04 | 0.04 | 91 | 1010.8 |
| 20260506182421 | 60 | 114 | 0.0 | 1.0 | 0.00 | 0.04 | 0.04 | 90 | 1010.9 |
| 20260506181918 | 60 | 138 | 1.0 | 2.0 | 0.00 | 0.04 | 0.04 | 90 | 1011.0 |
| 20260506181416 | 60 | 130 | 1.0 | 2.0 | 0.00 | 0.04 | 0.04 | 90 | 1011.2 |
| 20260506180912 | 59 | 126 | 1.0 | 2.0 | 0.00 | 0.04 | 0.04 | 90 | 1011.3 |
| 20260506180408 | 59 | 161 | 1.0 | 2.0 | 0.00 | 0.04 | 0.04 | 90 | 1011.4 |
| 20260506175906 | 59 | 142 | 1.0 | 2.0 | 0.05 | 0.04 | 0.04 | 90 | 1011.4 |
| 20260506175402 | 59 | 156 | 1.0 | 2.0 | 0.05 | 0.04 | 0.04 | 89 | 1011.3 |
| 20260506174859 | 59 | 120 | 0.0 | 1.0 | 0.00 | 0.03 | 0.03 | 89 | 1011.1 |
| 20260506174357 | 59 | 205 | 3.0 | 3.0 | 0.07 | 0.03 | 0.03 | 89 | 1011.2 |
| 20260506173854 | 59 | 186 | 3.0 | 3.0 | 0.07 | 0.03 | 0.03 | 89 | 1011.4 |
| 20260506173350 | 59 | 233 | 3.0 | 3.0 | 0.00 | 0.02 | 0.02 | 89 | 1011.0 |
| 20260506172848 | 59 | 117 | 1.0 | 3.0 | 0.00 | 0.02 | 0.02 | 88 | 1011.2 |
| 20260506172344 | 60 | 248 | 3.0 | 5.0 | 0.00 | 0.02 | 0.02 | 88 | 1011.3 |
| 20260506171842 | 60 | 110 | 0.0 | 2.0 | 0.00 | 0.02 | 0.02 | 88 | 1011.0 |
| 20260506171339 | 60 | 127 | 1.0 | 3.0 | 0.00 | 0.02 | 0.02 | 88 | 1011.4 |
| 20260506170836 | 60 | 113 | 0.0 | 2.0 | 0.05 | 0.02 | 0.02 | 88 | 1011.4 |
| 20260506170331 | 60 | 185 | 1.0 | 3.0 | 0.05 | 0.02 | 0.02 | 87 | 1011.0 |
| 20260506165826 | 60 | 116 | 0.0 | 2.0 | 0.00 | 0.01 | 0.01 | 87 | 1011.6 |
| 20260506165323 | 60 | 154 | 2.0 | 2.0 | 0.07 | 0.01 | 0.01 | 86 | 1011.6 |
| 20260506164819 | 61 | 186 | 2.0 | 2.0 | 0.07 | 0.01 | 0.01 | 86 | 1011.5 |
| 20260506164316 | 61 | 114 | 1.0 | 2.0 | 0.00 | 0.00 | 0.00 | 85 | 1011.8 |
| 20260506163813 | 62 | 151 | 2.0 | 2.0 | 0.00 | 0.00 | 0.00 | 84 | 1012.1 |
| 20260506163308 | 62 | 124 | 2.0 | 3.0 | 0.00 | 0.00 | 0.00 | 83 | 1012.1 |
| 20260506162804 | 62 | 120 | 1.0 | 2.0 | 0.00 | 0.00 | 0.00 | 83 | 1012.2 |
| 20260506162306 | 63 | 238 | 2.0 | 3.0 | 0.00 | 0.00 | 0.00 | 82 | 1012.5 |
| 20260506161759 | 63 | 175 | 1.0 | 3.0 | 0.00 | 0.00 | 0.00 | 82 | 1012.4 |
| 20260506161256 | 63 | 136 | 1.0 | 2.0 | 0.00 | 0.00 | 0.00 | 81 | 1012.4 |
| 20260506160754 | 63 | 191 | 2.0 | 3.0 | 0.00 | 0.00 | 0.00 | 81 | 1012.2 |
| 20260506160250 | 63 | 208 | 3.0 | 5.0 | 0.00 | 0.00 | 0.00 | 80 | 1012.2 |
| 20260506155749 | 64 | 180 | 1.0 | 2.0 | 0.00 | 0.00 | 0.00 | 80 | 1012.5 |
| 20260506155245 | 64 | 106 | 2.0 | 2.0 | 0.00 | 0.00 | 0.00 | 80 | 1012.2 |
| 20260506153358 | 64 | 144 | 1.0 | 3.0 | 0.00 | 0.00 | 0.00 | 79 | 1012.5 |
| 20260506152855 | 65 | 139 | 1.0 | 5.0 | 0.00 | 0.00 | 0.00 | 78 | 1012.6 |
| 20260506152352 | 65 | 236 | 3.0 | 3.0 | 0.00 | 0.00 | 0.00 | 78 | 1012.6 |
| 20260506151851 | 65 | 225 | 1.0 | 6.0 | 0.00 | 0.00 | 0.00 | 78 | 1012.5 |
| 20260506151347 | 65 | 157 | 2.0 | 2.0 | 0.00 | 0.00 | 0.00 | 78 | 1012.5 |
| 20260506150845 | 66 | 241 | 4.0 | 6.0 | 0.00 | 0.00 | 0.00 | 77 | 1012.6 |
| 20260506150341 | 66 | 98 | 2.0 | 5.0 | 0.00 | 0.00 | 0.00 | 78 | 1012.5 |
| 20260506145838 | 66 | 279 | 4.0 | 8.0 | 0.00 | 0.00 | 0.00 | 78 | 1012.7 |
| 20260506145334 | 65 | 168 | 1.0 | 5.0 | 0.00 | 0.00 | 0.00 | 79 | 1012.4 |
| 20260506144832 | 65 | 245 | 3.0 | 5.0 | 0.00 | 0.00 | 0.00 | 79 | 1012.3 |
| 20260506144328 | 64 | 187 | 3.0 | 3.0 | 0.00 | 0.00 | 0.00 | 79 | 1012.3 |
| 20260506143827 | 65 | 232 | 6.0 | 9.0 | 0.00 | 0.00 | 0.00 | 79 | 1012.4 |
| 20260506143323 | 65 | 176 | 2.0 | 2.0 | 0.00 | 0.00 | 0.00 | 79 | 1012.4 |
| 20260506142822 | 65 | 174 | 2.0 | 3.0 | 0.00 | 0.00 | 0.00 | 80 | 1012.3 |
| 20260506142319 | 65 | 141 | 2.0 | 6.0 | 0.00 | 0.00 | 0.00 | 80 | 1012.3 |
| 20260506141818 | 65 | 120 | 1.0 | 3.0 | 0.00 | 0.00 | 0.00 | 80 | 1012.5 |
| 20260506141315 | 65 | 189 | 2.0 | 2.0 | 0.00 | 0.00 | 0.00 | 81 | 1012.5 |
| 20260506140813 | 65 | 156 | 1.0 | 2.0 | 0.00 | 0.00 | 0.00 | 81 | 1012.5 |
| 20260506140309 | 65 | 128 | 0.0 | 2.0 | 0.00 | 0.00 | 0.00 | 81 | 1012.8 |
| 20260506135807 | 65 | 223 | 2.0 | 3.0 | 0.00 | 0.00 | 0.00 | 82 | 1012.7 |
| 20260506135305 | 65 | 117 | 1.0 | 3.0 | 0.00 | 0.00 | 0.00 | 83 | 1012.8 |
| 20260506134800 | 64 | 156 | 1.0 | 3.0 | 0.00 | 0.00 | 0.00 | 83 | 1012.7 |
| 20260506134256 | 64 | 186 | 3.0 | 3.0 | 0.00 | 0.00 | 0.00 | 84 | 1012.4 |
| 20260506133753 | 63 | 159 | 2.0 | 5.0 | 0.00 | 0.00 | 0.00 | 85 | 1012.7 |
| 20260506133250 | 62 | 142 | 1.0 | 3.0 | 0.00 | 0.00 | 0.00 | 85 | 1012.9 |
| 20260506132747 | 62 | 151 | 1.0 | 1.0 | 0.00 | 0.00 | 0.00 | 86 | 1012.7 |
| 20260506132244 | 62 | 242 | 3.0 | 3.0 | 0.00 | 0.00 | 0.00 | 86 | 1012.7 |
| 20260506131742 | 62 | 203 | 3.0 | 5.0 | 0.00 | 0.00 | 0.00 | 86 | 1012.7 |
| 20260506131238 | 62 | 184 | 2.0 | 5.0 | 0.00 | 0.00 | 0.00 | 87 | 1012.6 |
| 20260506130734 | 61 | 261 | 2.0 | 2.0 | 0.00 | 0.00 | 0.00 | 87 | 1012.6 |
| 20260506130231 | 61 | 165 | 2.0 | 2.0 | 0.00 | 0.00 | 0.00 | 87 | 1012.4 |
| 20260506125730 | 61 | 226 | 2.0 | 2.0 | 0.00 | 0.00 | 0.00 | 87 | 1012.5 |
| 20260506125227 | 61 | 221 | 2.0 | 2.0 | 0.00 | 0.00 | 0.00 | 87 | 1012.4 |
| 20260506124725 | 61 | 176 | 1.0 | 2.0 | 0.00 | 0.00 | 0.00 | 87 | 1012.4 |
| 20260506124223 | 61 | 114 | 0.0 | 2.0 | 0.00 | 0.00 | 0.00 | 88 | 1012.5 |
| 20260506123720 | 61 | 118 | 0.0 | 2.0 | 0.00 | 0.00 | 0.00 | 88 | 1012.4 |
| 20260506123219 | 61 | 129 | 1.0 | 2.0 | 0.00 | 0.00 | 0.00 | 88 | 1012.7 |
| 20260506122715 | 61 | 138 | 1.0 | 1.0 | 0.00 | 0.00 | 0.00 | 88 | 1012.6 |
| 20260506122213 | 61 | 145 | 1.0 | 2.0 | 0.00 | 0.00 | 0.00 | 89 | 1012.6 |
| 20260506121710 | 60 | 144 | 1.0 | 2.0 | 0.00 | 0.00 | 0.00 | 89 | 1012.9 |
| 20260506121207 | 60 | 114 | 0.0 | 2.0 | 0.00 | 0.00 | 0.00 | 89 | 1013.0 |
| 20260506120704 | 60 | 128 | 2.0 | 3.0 | 0.00 | 0.00 | 0.00 | 89 | 1013.0 |
| 20260506120202 | 59 | 101 | 1.0 | 2.0 | 0.00 | 0.00 | 0.00 | 90 | 1013.0 |
| 20260506115700 | 59 | 203 | 2.0 | 3.0 | 0.00 | 0.00 | 0.00 | 90 | 1012.9 |
| 20260506115158 | 59 | 201 | 2.0 | 3.0 | 0.00 | 0.00 | 0.00 | 90 | 1012.8 |
| 20260506114655 | 58 | 149 | 1.0 | 3.0 | 0.00 | 0.00 | 0.00 | 90 | 1012.9 |
| 20260506114152 | 58 | 137 | 2.0 | 2.0 | 0.00 | 0.00 | 0.00 | 90 | 1013.0 |
| 20260506113651 | 58 | 63 | 0.0 | 2.0 | 0.00 | 0.00 | 0.00 | 90 | 1013.2 |
| 20260506113148 | 57 | 132 | 1.0 | 5.0 | 0.00 | 0.00 | 0.00 | 90 | 1013.2 |
| 20260506112644 | 57 | 224 | 2.0 | 5.0 | 0.00 | 0.00 | 0.00 | 90 | 1013.0 |
| 20260506112142 | 57 | 118 | 0.0 | 2.0 | 0.00 | 0.00 | 0.00 | 91 | 1013.0 |
| 20260506111639 | 57 | 151 | 1.0 | 3.0 | 0.00 | 0.00 | 0.00 | 91 | 1012.9 |
| 20260506111137 | 57 | 136 | 1.0 | 2.0 | 0.00 | 0.00 | 0.00 | 91 | 1012.9 |
| 20260506110634 | 56 | 208 | 3.0 | 5.0 | 0.00 | 0.00 | 0.00 | 91 | 1013.1 |
| 20260506110131 | 56 | 178 | 1.0 | 3.0 | 0.00 | 0.00 | 0.00 | 91 | 1013.3 |
| 20260506105627 | 56 | 133 | 1.0 | 2.0 | 0.00 | 0.00 | 0.00 | 91 | 1013.2 |
| 20260506105125 | 56 | 135 | 1.0 | 6.0 | 0.00 | 0.00 | 0.00 | 91 | 1012.8 |
| 20260506104623 | 56 | 146 | 1.0 | 3.0 | 0.00 | 0.00 | 0.00 | 91 | 1012.7 |
| 20260506104120 | 56 | 128 | 1.0 | 2.0 | 0.00 | 0.00 | 0.00 | 91 | 1012.9 |
| 20260506103617 | 56 | 162 | 1.0 | 5.0 | 0.00 | 0.00 | 0.00 | 91 | 1013.0 |
| 20260506103114 | 55 | 148 | 1.0 | 3.0 | 0.00 | 0.00 | 0.00 | 91 | 1012.8 |
| 20260506102612 | 56 | 226 | 2.0 | 3.0 | 0.00 | 0.00 | 0.00 | 91 | 1012.9 |
| 20260506102109 | 55 | 145 | 1.0 | 3.0 | 0.00 | 0.00 | 0.00 | 91 | 1012.7 |
| 20260506101606 | 55 | 140 | 1.0 | 2.0 | 0.00 | 0.00 | 0.00 | 91 | 1012.9 |
| 20260506101103 | 55 | 134 | 1.0 | 3.0 | 0.00 | 0.00 | 0.00 | 91 | 1012.8 |
| 20260506100601 | 55 | 138 | 1.0 | 3.0 | 0.00 | 0.00 | 0.00 | 91 | 1012.5 |
| 20260506100059 | 55 | 162 | 1.0 | 3.0 | 0.00 | 0.00 | 0.00 | 91 | 1012.8 |
| 20260506095557 | 55 | 187 | 1.0 | 2.0 | 0.00 | 0.00 | 0.00 | 91 | 1012.7 |
| 20260506095053 | 55 | 126 | 0.0 | 2.0 | 0.00 | 0.00 | 0.00 | 91 | 1012.8 |
| 20260506094551 | 55 | 180 | 2.0 | 2.0 | 0.00 | 0.00 | 0.00 | 91 | 1012.8 |
| 20260506094049 | 55 | 135 | 1.0 | 2.0 | 0.00 | 0.00 | 0.00 | 91 | 1012.8 |
| 20260506093547 | 55 | 155 | 1.0 | 2.0 | 0.00 | 0.00 | 0.00 | 91 | 1012.7 |
| 20260506093044 | 55 | 158 | 0.0 | 3.0 | 0.00 | 0.00 | 0.00 | 90 | 1012.8 |
| 20260506092542 | 55 | 136 | 0.0 | 1.0 | 0.00 | 0.00 | 0.00 | 90 | 1013.0 |
| 20260506092038 | 55 | 173 | 1.0 | 2.0 | 0.00 | 0.00 | 0.00 | 90 | 1012.7 |
| 20260506091537 | 55 | 133 | 1.0 | 2.0 | 0.00 | 0.00 | 0.00 | 90 | 1012.9 |
| 20260506091034 | 54 | 134 | 0.0 | 1.0 | 0.00 | 0.00 | 0.00 | 90 | 1012.8 |
| 20260506090532 | 54 | 125 | 1.0 | 2.0 | 0.00 | 0.00 | 0.00 | 90 | 1012.7 |
| 20260506090028 | 54 | 140 | 1.0 | 2.0 | 0.00 | 0.00 | 0.00 | 90 | 1012.8 |
| 20260506085525 | 54 | 149 | 2.0 | 2.0 | 0.00 | 0.00 | 0.00 | 90 | 1012.8 |
| 20260506085021 | 54 | 126 | 0.0 | 1.0 | 0.00 | 0.00 | 0.00 | 90 | 1013.1 |
| 20260506084518 | 54 | 151 | 1.0 | 2.0 | 0.00 | 0.00 | 0.00 | 90 | 1013.3 |
| 20260506084014 | 54 | 121 | 0.0 | 1.0 | 0.00 | 0.00 | 0.00 | 90 | 1013.0 |
| 20260506083512 | 54 | 121 | 0.0 | 0.0 | 0.00 | 0.00 | 0.00 | 89 | 1012.9 |
| 20260506083009 | 54 | 119 | 0.0 | 0.0 | 0.00 | 0.00 | 0.00 | 89 | 1012.9 |
| 20260506082506 | 54 | 123 | 0.0 | 0.0 | 0.00 | 0.00 | 0.00 | 89 | 1013.1 |
| 20260506082001 | 54 | 114 | 0.0 | 0.0 | 0.00 | 0.00 | 0.00 | 89 | 1013.1 |
| 20260506081500 | 54 | 125 | 0.0 | 0.0 | 0.00 | 0.00 | 0.00 | 89 | 1013.1 |
| 20260506080957 | 54 | 126 | 0.0 | 1.0 | 0.00 | 0.00 | 0.00 | 89 | 1013.0 |
| 20260506080454 | 54 | 122 | 0.0 | 0.0 | 0.00 | 0.00 | 0.00 | 89 | 1013.3 |
| 20260506073438 | 55 | 125 | 0.0 | 1.0 | 0.00 | 0.00 | 0.00 | 88 | 1013.2 |
| 20260506072935 | 55 | 122 | 0.0 | 1.0 | 0.00 | 0.00 | 0.00 | 88 | 1013.1 |
| 20260506072432 | 55 | 116 | 0.0 | 1.0 | 0.00 | 0.00 | 0.00 | 88 | 1013.2 |
| 20260506071930 | 55 | 115 | 1.0 | 2.0 | 0.00 | 0.00 | 0.00 | 88 | 1013.2 |
| 20260506071427 | 55 | 143 | 0.0 | 1.0 | 0.00 | 0.00 | 0.00 | 88 | 1013.4 |
| 20260506070924 | 55 | 128 | 0.0 | 1.0 | 0.00 | 0.00 | 0.00 | 88 | 1013.4 |
| 20260506070421 | 55 | 126 | 1.0 | 1.0 | 0.00 | 0.00 | 0.00 | 88 | 1013.3 |
| 20260506062359 | 56 | 178 | 1.0 | 2.0 | 0.00 | 0.00 | 0.00 | 87 | 1013.3 |
| 20260506061854 | 56 | 126 | 1.0 | 2.0 | 0.00 | 0.00 | 0.00 | 87 | 1013.3 |
| 20260506061351 | 56 | 134 | 1.0 | 2.0 | 0.00 | 0.00 | 0.00 | 87 | 1013.1 |
| 20260506060849 | 56 | 140 | 1.0 | 2.0 | 0.00 | 0.00 | 0.00 | 86 | 1013.2 |
| 20260506060347 | 57 | 128 | 1.0 | 2.0 | 0.00 | 0.00 | 0.00 | 86 | 1013.3 |
| 20260506051319 | 58 | 135 | 1.0 | 2.0 | 0.00 | 0.00 | 0.00 | 84 | 1013.7 |
| 20260506050816 | 58 | 128 | 1.0 | 2.0 | 0.00 | 0.00 | 0.00 | 83 | 1013.8 |
| 20260506050314 | 58 | 144 | 0.0 | 1.0 | 0.00 | 0.00 | 0.00 | 83 | 1013.8 |
| 20260506044804 | 58 | 131 | 1.0 | 2.0 | 0.00 | 0.00 | 0.00 | 81 | 1013.7 |
| 20260506044301 | 59 | 128 | 1.0 | 2.0 | 0.00 | 0.00 | 0.00 | 81 | 1014.0 |
| 20260506043759 | 59 | 134 | 1.0 | 1.0 | 0.00 | 0.00 | 0.00 | 81 | 1013.9 |
| 20260506043256 | 59 | 122 | 0.0 | 2.0 | 0.00 | 0.00 | 0.00 | 80 | 1013.7 |
| 20260506042755 | 59 | 126 | 0.0 | 1.0 | 0.00 | 0.00 | 0.00 | 80 | 1013.9 |
| 20260506042253 | 59 | 134 | 1.0 | 1.0 | 0.00 | 0.00 | 0.00 | 79 | 1013.7 |
| 20260506041751 | 59 | 139 | 1.0 | 1.0 | 0.00 | 0.00 | 0.00 | 79 | 1013.7 |
| 20260506041248 | 60 | 145 | 1.0 | 2.0 | 0.00 | 0.00 | 0.00 | 79 | 1013.6 |
| 20260506040745 | 60 | 139 | 1.0 | 1.0 | 0.00 | 0.00 | 0.00 | 78 | 1013.6 |
| 20260506040242 | 60 | 139 | 1.0 | 2.0 | 0.00 | 0.00 | 0.00 | 78 | 1013.5 |
| 20260506035739 | 60 | 138 | 1.0 | 1.0 | 0.00 | 0.00 | 0.00 | 77 | 1013.8 |
| 20260506035236 | 61 | 148 | 1.0 | 1.0 | 0.00 | 0.00 | 0.00 | 76 | 1013.7 |
| 20260506034733 | 61 | 131 | 1.0 | 2.0 | 0.00 | 0.00 | 0.00 | 76 | 1013.6 |
| 20260506034230 | 62 | 151 | 1.0 | 2.0 | 0.00 | 0.00 | 0.00 | 75 | 1013.7 |
| 20260506033727 | 62 | 127 | 1.0 | 2.0 | 0.00 | 0.00 | 0.00 | 75 | 1013.8 |
| 20260506033224 | 62 | 135 | 1.0 | 1.0 | 0.00 | 0.00 | 0.00 | 74 | 1013.6 |
| 20260506032721 | 62 | 139 | 1.0 | 2.0 | 0.00 | 0.00 | 0.00 | 74 | 1013.8 |
| 20260506032218 | 62 | 133 | 1.0 | 2.0 | 0.00 | 0.00 | 0.00 | 74 | 1013.4 |
| 20260506031714 | 63 | 134 | 1.0 | 2.0 | 0.00 | 0.00 | 0.00 | 73 | 1013.6 |
| 20260506031212 | 63 | 173 | 2.0 | 2.0 | 0.00 | 0.00 | 0.00 | 73 | 1013.5 |
| 20260506030710 | 63 | 222 | 2.0 | 2.0 | 0.00 | 0.00 | 0.00 | 73 | 1013.5 |
| 20260506030207 | 63 | 122 | 1.0 | 1.0 | 0.00 | 0.00 | 0.00 | 72 | 1013.5 |
| 20260506025704 | 64 | 236 | 2.0 | 3.0 | 0.00 | 0.00 | 0.00 | 72 | 1013.7 |
| 20260506025200 | 64 | 158 | 1.0 | 2.0 | 0.00 | 0.00 | 0.00 | 72 | 1013.6 |
| 20260506024658 | 64 | 154 | 1.0 | 3.0 | 0.00 | 0.00 | 0.00 | 71 | 1013.5 |
| 20260506024154 | 64 | 159 | 2.0 | 3.0 | 0.00 | 0.00 | 0.00 | 71 | 1013.5 |
| 20260506023650 | 64 | 233 | 3.0 | 3.0 | 0.00 | 0.00 | 0.00 | 71 | 1013.5 |
| 20260506023148 | 64 | 210 | 2.0 | 3.0 | 0.00 | 0.00 | 0.00 | 71 | 1013.6 |
| 20260506022644 | 65 | 208 | 2.0 | 2.0 | 0.00 | 0.00 | 0.00 | 70 | 1013.8 |
| 20260506022142 | 65 | 148 | 2.0 | 2.0 | 0.00 | 0.00 | 0.00 | 70 | 1013.5 |
| 20260506021640 | 65 | 151 | 1.0 | 2.0 | 0.00 | 0.00 | 0.00 | 70 | 1013.5 |
| 20260506021136 | 65 | 136 | 2.0 | 3.0 | 0.00 | 0.00 | 0.00 | 70 | 1013.5 |
| 20260506020634 | 65 | 119 | 2.0 | 5.0 | 0.00 | 0.00 | 0.00 | 70 | 1013.5 |
| 20260506020131 | 65 | 221 | 3.0 | 5.0 | 0.00 | 0.00 | 0.00 | 70 | 1013.3 |
| 20260506015629 | 65 | 206 | 3.0 | 6.0 | 0.00 | 0.00 | 0.00 | 70 | 1013.4 |
| 20260506015126 | 65 | 209 | 4.0 | 5.0 | 0.00 | 0.00 | 0.00 | 70 | 1013.4 |
| 20260506014623 | 65 | 128 | 1.0 | 2.0 | 0.00 | 0.00 | 0.00 | 70 | 1013.2 |
| 20260506014118 | 65 | 223 | 2.0 | 5.0 | 0.00 | 0.00 | 0.00 | 70 | 1013.2 |
| 20260506013617 | 65 | 214 | 3.0 | 5.0 | 0.00 | 0.00 | 0.00 | 70 | 1012.9 |
| 20260506013113 | 65 | 196 | 3.0 | 3.0 | 0.00 | 0.00 | 0.00 | 70 | 1013.0 |
| 20260506012610 | 65 | 246 | 4.0 | 7.0 | 0.00 | 0.00 | 0.00 | 70 | 1012.9 |
| 20260506012106 | 65 | 246 | 4.0 | 7.0 | 0.00 | 0.00 | 0.00 | 70 | 1013.2 |
| 20260506011604 | 65 | 213 | 4.0 | 5.0 | 0.00 | 0.00 | 0.00 | 71 | 1012.9 |
| 20260506011100 | 64 | 221 | 2.0 | 6.0 | 0.00 | 0.00 | 0.00 | 71 | 1012.9 |
| 20260506010559 | 65 | 204 | 3.0 | 5.0 | 0.00 | 0.00 | 0.00 | 71 | 1013.0 |
| 20260506010056 | 65 | 160 | 3.0 | 3.0 | 0.00 | 0.00 | 0.00 | 71 | 1012.9 |
| 20260506005553 | 65 | 230 | 2.0 | 6.0 | 0.00 | 0.00 | 0.00 | 71 | 1012.7 |
| 20260506005049 | 65 | 226 | 2.0 | 5.0 | 0.00 | 0.00 | 0.00 | 71 | 1012.7 |
| 20260506004546 | 65 | 150 | 3.0 | 5.0 | 0.00 | 0.00 | 0.00 | 71 | 1012.6 |
| 20260506004043 | 64 | 191 | 3.0 | 6.0 | 0.00 | 0.00 | 0.00 | 71 | 1012.8 |
| 20260506003539 | 64 | 208 | 3.0 | 3.0 | 0.00 | 0.00 | 0.00 | 71 | 1012.4 |
| 20260506003036 | 64 | 251 | 4.0 | 6.0 | 0.00 | 0.00 | 0.00 | 71 | 1012.6 |
| 20260506002532 | 64 | 230 | 4.0 | 6.0 | 0.00 | 0.00 | 0.00 | 71 | 1012.5 |
| 20260506002028 | 64 | 228 | 5.0 | 6.0 | 0.00 | 0.00 | 0.00 | 71 | 1012.4 |
| 20260506001524 | 65 | 143 | 1.0 | 2.0 | 0.00 | 0.00 | 0.00 | 70 | 1012.3 |